Change the Weather History Date:

Saturday, December 7, 2013

  Actual Average Record
Temperature  
Mean Temperature 2 °F -  
Max Temperature 9 °F 29 °F 52 °F (1988)
Min Temperature -6 °F 11 °F -18 °F (1972)
Degree Days  
Heating Degree Days 64    
Moisture  
Dew Point -9 °F    
Average Humidity 66    
Maximum Humidity 76    
Minimum Humidity 53    
Precipitation  
Precipitation 0.00 in - - ()
Sea Level Pressure  
Sea Level Pressure 30.57 in    
Wind  
Wind Speed 7 mph (West)    
Max Wind Speed 9 mph    
Max Gust Speed -    
Visibility 10 miles    
Events      
Averages and records for this station are not official NWS values.
T = Trace of Precipitation, MM = Missing Value Source: NWS Daily Summary

Daily Weather History Graph

Daily Weather History Graph

Search for Another Location

Airport or City:

Trip Planner

Search our weather history database for the weather conditions in past years. The results will help you decide how hot, cold, wet, or windy it might be!

Date:

Astronomy

Dec. 07, 2013 Rise Set
Actual Time 7:20 AM CST 4:07 PM CST
Civil Twilight 6:45 AM CST 4:42 PM CST
Nautical Twilight 6:08 AM CST 5:19 PM CST
Astronomical Twilight 5:32 AM CST 5:55 PM CST
Moon 10:54 AM CST (12/7) 10:01 PM CST (12/7)
Length of Visible Light 9h 56m
Length of Day
8h 47m
Waxing Crescent, 29% of the Moon is Illuminated
Dec 7
Waxing Crescent
Dec 9
First Quarter
Dec 17
Full
Dec 25
Last Quarter
Jan 1
New

Hourly Weather History & Observations

Time (CST) Temp. Windchill Dew Point Humidity Pressure Visibility Wind Dir Wind Speed Gust Speed Precip Events Conditions
12:54 AM -0.0 °F -13.0 °F -6.0 °F 76% 30.48 in 10.0 mi West 6.9 mph - N/A   Clear
1:54 AM -0.9 °F -12.7 °F -7.1 °F 75% 30.50 in 10.0 mi West 5.8 mph - N/A   Clear
2:54 AM -0.9 °F -15.3 °F -8.0 °F 72% 30.52 in 10.0 mi West 8.1 mph - N/A   Clear
3:54 AM -2.0 °F -13.9 °F -8.0 °F 76% 30.53 in 10.0 mi West 5.8 mph - N/A   Clear
4:54 AM -2.9 °F -17.7 °F -9.0 °F 75% 30.54 in 10.0 mi West 8.1 mph - N/A   Clear
5:54 AM -4.0 °F -17.8 °F -9.9 °F 76% 30.56 in 10.0 mi West 6.9 mph - N/A   Clear
6:54 AM -5.1 °F -17.6 °F -11.0 °F 76% 30.57 in 10.0 mi West 5.8 mph - N/A   Clear
7:54 AM -6.0 °F -22.6 °F -11.9 °F 75% 30.58 in 10.0 mi West 9.2 mph - N/A   Clear
8:54 AM -4.0 °F -20.2 °F -11.9 °F 69% 30.61 in 10.0 mi WNW 9.2 mph - N/A   Clear
9:54 AM -0.0 °F -13.0 °F -9.9 °F 63% 30.62 in 10.0 mi West 6.9 mph - N/A   Clear
10:54 AM 3.0 °F -9.3 °F -9.0 °F 57% 30.62 in 10.0 mi West 6.9 mph - N/A   Clear
11:54 AM 6.1 °F -7.8 °F -8.0 °F 53% 30.59 in 10.0 mi West 9.2 mph - N/A   Clear
1:54 PM 8.1 °F -0.5 °F -6.0 °F 53% 30.57 in 10.0 mi West 4.6 mph - N/A   Clear
2:54 PM 9.0 °F -4.2 °F -5.1 °F 53% 30.57 in 10.0 mi WSW 9.2 mph - N/A   Unknown
3:54 PM 7.0 °F -1.7 °F -6.0 °F 55% 30.57 in 10.0 mi West 4.6 mph - N/A   Clear
4:54 PM 5.0 °F -9.1 °F -7.1 °F 58% 30.58 in 10.0 mi WSW 9.2 mph - N/A   Clear
5:54 PM 3.0 °F -9.3 °F -8.0 °F 60% 30.59 in 10.0 mi WSW 6.9 mph - N/A   Clear
6:54 PM 1.9 °F -10.6 °F -9.0 °F 60% 30.60 in 10.0 mi West 6.9 mph - N/A   Clear
7:54 PM 1.0 °F -10.3 °F -9.0 °F 63% 30.61 in 10.0 mi West 5.8 mph - N/A   Clear
8:54 PM -0.9 °F -15.3 °F -9.9 °F 66% 30.59 in 10.0 mi West 8.1 mph - N/A   Clear
9:54 PM -2.0 °F -15.4 °F -11.0 °F 66% 30.59 in 10.0 mi West 6.9 mph - N/A   Clear
10:54 PM -2.9 °F -16.5 °F -11.9 °F 65% 30.59 in 10.0 mi WNW 6.9 mph - N/A   Clear
11:54 PM -5.1 °F -17.6 °F -11.9 °F 72% 30.59 in 10.0 mi WNW 5.8 mph - N/A   Clear